When you browse on this site, cookies collect data to enhance your experience and personalize the content and advertising you see.
Visit our Privacy Policy to learn more. By continuing to use the site, you agree to this use of cookies and data.
  • In Latvia
  • List of Countries
  • For 7 days
  • Water Temperature
  • Weather Map
  • Weather Widgets
  • user-avatar
    Login

    Hourly Weather Gogolin

    Today, 15 October, Tuesday

    Time Temperature Precipitation Wind Pressure Humidity
    00:00 +15°C° 0 mm 2 mps 746 mmHg 75%
    01:00 +15°C° 0 mm 2 mps 746 mmHg 75%
    02:00 +15°C° 0 mm 2 mps 746 mmHg 76%
    03:00 +14°C° 0 mm 2 mps 746 mmHg 77%
    04:00 +13°C° 0 mm 3 mps 745 mmHg 78%
    05:00 +13°C° 0 mm 3 mps 745 mmHg 77%
    06:00 +13°C° 0 mm 4 mps 745 mmHg 76%
    07:00 +13°C° 0 mm 4 mps 745 mmHg 75%
    08:00 +14°C° 0 mm 4 mps 745 mmHg 70%
    09:00 +17°C° 0 mm 4 mps 744 mmHg 64%
    10:00 +17°C° 0 mm 5 mps 744 mmHg 58%
    11:00 +19°C° 0 mm 5 mps 744 mmHg 56%
    12:00 +20°C° 0 mm 5 mps 743 mmHg 54%
    13:00 +21°C° 0 mm 5 mps 743 mmHg 51%
    14:00 +21°C° 0 mm 4 mps 743 mmHg 54%
    15:00 +20°C° 0 mm 4 mps 742 mmHg 58%
    16:00 +20°C° 0 mm 3 mps 742 mmHg 61%
    17:00 +19°C° 0 mm 3 mps 742 mmHg 64%
    18:00 +18°C° 0 mm 4 mps 742 mmHg 67%
    19:00 +17°C° 0 mm 4 mps 742 mmHg 69%
    20:00 +15°C° 0 mm 4 mps 742 mmHg 71%
    21:00 +14°C° 0 mm 4 mps 741 mmHg 73%
    22:00 +14°C° 0 mm 3 mps 741 mmHg 75%
    23:00 +13°C° 0 mm 3 mps 741 mmHg 77%

    Tomorrow, 16 October, Wednesday

    Time Temperature Precipitation Wind Pressure Humidity
    00:00 +13°C° 0 mm 3 mps 741 mmHg 78%
    01:00 +13°C° 0 mm 3 mps 741 mmHg 80%
    02:00 +12°C° 0 mm 3 mps 741 mmHg 79%
    03:00 +12°C° 0 mm 3 mps 741 mmHg 79%
    04:00 +12°C° 0 mm 3 mps 740 mmHg 78%
    05:00 +13°C° 0 mm 4 mps 740 mmHg 75%
    06:00 +13°C° 0 mm 4 mps 741 mmHg 73%
    07:00 +14°C° 0 mm 5 mps 741 mmHg 70%
    08:00 +15°C° 0 mm 5 mps 741 mmHg 68%
    09:00 +17°C° 0 mm 6 mps 742 mmHg 67%
    10:00 +18°C° 0 mm 7 mps 742 mmHg 65%
    11:00 +18°C° 0 mm 7 mps 742 mmHg 64%
    12:00 +18°C° 0 mm 7 mps 743 mmHg 62%
    13:00 +20°C° 0 mm 7 mps 743 mmHg 60%
    14:00 +18°C° 0 mm 7 mps 743 mmHg 62%
    15:00 +17°C° 0 mm 6 mps 743 mmHg 64%
    16:00 +16°C° 0 mm 5 mps 744 mmHg 66%
    17:00 +15°C° 0 mm 5 mps 744 mmHg 69%
    18:00 +14°C° 0 mm 4 mps 744 mmHg 72%
    19:00 +13°C° 0 mm 4 mps 745 mmHg 75%
    20:00 +12°C° 0 mm 4 mps 745 mmHg 73%
    21:00 +12°C° 0 mm 4 mps 745 mmHg 71%
    22:00 +12°C° 0 mm 4 mps 745 mmHg 70%
    23:00 +11°C° 0 mm 4 mps 746 mmHg 71%

    Day after tomorrow, 17 October, Thursday

    Time Temperature Precipitation Wind Pressure Humidity
    00:00 +11°C° 0 mm 4 mps 746 mmHg 72%
    01:00 +11°C° 0 mm 4 mps 746 mmHg 74%
    02:00 +10°C° 0 mm 4 mps 746 mmHg 74%
    03:00 +10°C° 0 mm 4 mps 746 mmHg 75%
    04:00 +10°C° 0 mm 4 mps 746 mmHg 75%
    05:00 +10°C° 0 mm 4 mps 747 mmHg 76%
    06:00 +10°C° 0 mm 4 mps 747 mmHg 77%
    07:00 +10°C° 0 mm 4 mps 747 mmHg 77%
    08:00 +11°C° 0 mm 4 mps 747 mmHg 71%
    09:00 +13°C° 0 mm 4 mps 747 mmHg 65%
    10:00 +15°C° 0 mm 4 mps 747 mmHg 59%
    11:00 +17°C° 0 mm 4 mps 747 mmHg 58%
    12:00 +18°C° 0 mm 4 mps 747 mmHg 56%
    13:00 +18°C° 0 mm 3 mps 747 mmHg 54%
    14:00 +18°C° 0 mm 3 mps 747 mmHg 57%
    15:00 +17°C° 0 mm 2 mps 747 mmHg 60%
    16:00 +16°C° 0 mm 2 mps 747 mmHg 63%
    17:00 +16°C° 0 mm 1 mps 747 mmHg 65%
    18:00 +15°C° 0 mm 1 mps 747 mmHg 67%
    19:00 +14°C° 0 mm 1 mps 747 mmHg 69%
    20:00 +14°C° 0 mm 1 mps 747 mmHg 68%
    21:00 +14°C° 0 mm 2 mps 747 mmHg 68%
    22:00 +13°C° 0 mm 2 mps 747 mmHg 68%
    23:00 +14°C° 0 mm 2 mps 747 mmHg 65%

    18 October, Friday

    Time Temperature Precipitation Wind Pressure Humidity
    00:00 +14°C° 0 mm 2 mps 747 mmHg 63%
    01:00 +14°C° 0 mm 2 mps 747 mmHg 61%
    02:00 +14°C° 0.2 mm 2 mps 747 mmHg 66%
    03:00 +14°C° 0.2 mm 1 mps 747 mmHg 72%
    04:00 +13°C° 0.2 mm 1 mps 747 mmHg 78%
    05:00 +13°C° 0 mm 1 mps 747 mmHg 79%
    06:00 +13°C° 0 mm 1 mps 747 mmHg 81%
    07:00 +13°C° 0 mm 1 mps 747 mmHg 82%
    08:00 +14°C° 0 mm 1 mps 747 mmHg 75%
    09:00 +16°C° 0 mm 2 mps 748 mmHg 69%
    10:00 +17°C° 0 mm 2 mps 748 mmHg 62%
    11:00 +17°C° 0 mm 2 mps 747 mmHg 61%
    12:00 +18°C° 0 mm 2 mps 747 mmHg 59%
    13:00 +19°C° 0 mm 2 mps 747 mmHg 57%
    14:00 +19°C° 0 mm 1 mps 747 mmHg 60%
    15:00 +19°C° 0 mm 1 mps 747 mmHg 63%
    16:00 +18°C° 0 mm 1 mps 747 mmHg 66%
    17:00 +16°C° 0 mm 1 mps 747 mmHg 69%
    18:00 +14°C° 0 mm 0 mps 747 mmHg 71%
    19:00 +13°C° 0 mm 0 mps 747 mmHg 74%
    20:00 +14°C° 0 mm 1 mps 747 mmHg 76%
    21:00 +14°C° 0 mm 1 mps 747 mmHg 78%
    22:00 +13°C° 0 mm 1 mps 747 mmHg 80%
    23:00 +13°C° 0 mm 1 mps 747 mmHg 81%

    19 October, Saturday

    Time Temperature Precipitation Wind Pressure Humidity
    00:00 +13°C° 0 mm 1 mps 747 mmHg 82%
    01:00 +13°C° 0 mm 1 mps 746 mmHg 84%
    02:00 +13°C° 0 mm 1 mps 746 mmHg 84%
    03:00 +13°C° 0 mm 1 mps 746 mmHg 84%
    04:00 +13°C° 0 mm 1 mps 746 mmHg 84%
    05:00 +13°C° 0 mm 1 mps 746 mmHg 84%
    06:00 +13°C° 0 mm 2 mps 746 mmHg 84%
    07:00 +13°C° 0 mm 2 mps 746 mmHg 84%
    08:00 +14°C° 0 mm 2 mps 746 mmHg 79%
    09:00 +16°C° 0 mm 2 mps 745 mmHg 75%
    10:00 +17°C° 0 mm 2 mps 745 mmHg 70%
    11:00 +18°C° 0 mm 2 mps 745 mmHg 67%
    12:00 +18°C° 0 mm 2 mps 745 mmHg 65%
    13:00 +19°C° 0 mm 3 mps 745 mmHg 63%
    14:00 +19°C° 0 mm 2 mps 744 mmHg 66%
    15:00 +19°C° 0 mm 1 mps 744 mmHg 69%
    16:00 +18°C° 0 mm 1 mps 744 mmHg 72%
    17:00 +18°C° 0 mm 1 mps 744 mmHg 73%
    18:00 +18°C° 0 mm 1 mps 744 mmHg 74%
    19:00 +16°C° 0 mm 1 mps 744 mmHg 76%
    20:00 +16°C° 0 mm 2 mps 744 mmHg 76%
    21:00 +16°C° 0 mm 2 mps 743 mmHg 77%
    22:00 +16°C° 0 mm 2 mps 743 mmHg 77%
    23:00 +15°C° 0 mm 2 mps 743 mmHg 78%

    20 October, Sunday

    Time Temperature Precipitation Wind Pressure Humidity
    00:00 +15°C° 0 mm 2 mps 743 mmHg 79%
    01:00 +15°C° 0 mm 2 mps 743 mmHg 79%
    02:00 +14°C° 0 mm 2 mps 743 mmHg 80%
    03:00 +13°C° 0 mm 3 mps 742 mmHg 81%
    04:00 +12°C° 0 mm 3 mps 742 mmHg 82%
    05:00 +13°C° 0 mm 3 mps 742 mmHg 81%
    06:00 +13°C° 0 mm 3 mps 742 mmHg 80%
    07:00 +13°C° 0 mm 3 mps 742 mmHg 79%
    08:00 +14°C° 0 mm 4 mps 742 mmHg 72%
    09:00 +16°C° 0 mm 5 mps 742 mmHg 65%
    10:00 +19°C° 0 mm 6 mps 742 mmHg 58%
    11:00 +19°C° 0 mm 6 mps 742 mmHg 58%
    12:00 +19°C° 0 mm 6 mps 743 mmHg 58%
    13:00 +19°C° 0 mm 6 mps 743 mmHg 59%
    14:00 +17°C° 0 mm 5 mps 743 mmHg 62%
    15:00 +18°C° 0 mm 4 mps 744 mmHg 65%
    16:00 +17°C° 0 mm 4 mps 744 mmHg 68%
    17:00 +16°C° 0 mm 3 mps 745 mmHg 72%
    18:00 +14°C° 0 mm 3 mps 745 mmHg 75%
    19:00 +14°C° 0 mm 2 mps 746 mmHg 79%
    20:00 +14°C° 0 mm 2 mps 746 mmHg 79%
    21:00 +13°C° 0 mm 2 mps 747 mmHg 79%
    22:00 +13°C° 0 mm 1 mps 747 mmHg 79%
    23:00 +13°C° 0 mm 1 mps 747 mmHg 81%
    Show more